| time (UTC) | temp C | wind direction | speed KPH | gust KPH | rain 1hr cm | rain 24hr cm | rain mn cm | humidity % | barometer mb |
| 20260505072648 | 19 | 276 | 1.6 | 3.2 | 0.00 | 0.00 | 0.00 | 58 | 1009.4 |
| 20260505072145 | 19 | 230 | 4.8 | 4.8 | 0.00 | 0.00 | 0.00 | 57 | 1009.2 |
| 20260505071641 | 19 | 308 | 1.6 | 1.6 | 0.00 | 0.00 | 0.00 | 58 | 1009.1 |
| 20260505071139 | 19 | 203 | 1.6 | 3.2 | 0.00 | 0.00 | 0.00 | 57 | 1008.9 |
| 20260505070636 | 19 | 242 | 3.2 | 3.2 | 0.00 | 0.00 | 0.00 | 57 | 1009.0 |
| 20260505070132 | 19 | 285 | 0.0 | 4.8 | 0.00 | 0.00 | 0.00 | 58 | 1009.0 |
| 20260505065628 | 20 | 198 | 1.6 | 4.8 | 0.00 | 0.00 | 0.00 | 57 | 1009.2 |
| 20260505065125 | 20 | 273 | 3.2 | 8.0 | 0.00 | 0.00 | 0.00 | 56 | 1009.0 |
| 20260505064622 | 20 | 251 | 3.2 | 9.7 | 0.00 | 0.00 | 0.00 | 56 | 1009.0 |
| 20260505064120 | 20 | 214 | 1.6 | 4.8 | 0.00 | 0.00 | 0.00 | 56 | 1008.8 |
| 20260505063617 | 20 | 34 | 1.6 | 3.2 | 0.00 | 0.00 | 0.00 | 56 | 1008.7 |
| 20260505063113 | 20 | 242 | 3.2 | 8.0 | 0.00 | 0.00 | 0.00 | 55 | 1008.8 |
| 20260505062609 | 20 | 221 | 3.2 | 9.7 | 0.00 | 0.00 | 0.00 | 55 | 1008.8 |
| 20260505062107 | 20 | 264 | 3.2 | 8.0 | 0.00 | 0.00 | 0.00 | 54 | 1008.7 |
| 20260505061604 | 20 | 217 | 3.2 | 8.0 | 0.00 | 0.00 | 0.00 | 55 | 1008.8 |
| 20260505061102 | 20 | 282 | 1.6 | 4.8 | 0.00 | 0.00 | 0.00 | 55 | 1008.9 |
| 20260505060559 | 20 | 253 | 1.6 | 8.0 | 0.00 | 0.00 | 0.00 | 54 | 1008.8 |
| 20260505060056 | 20 | 207 | 6.4 | 9.7 | 0.00 | 0.00 | 0.00 | 55 | 1008.6 |
| 20260505055551 | 20 | 231 | 1.6 | 9.7 | 0.00 | 0.00 | 0.00 | 54 | 1008.5 |
| 20260505055048 | 20 | 208 | 3.2 | 8.0 | 0.00 | 0.00 | 0.00 | 54 | 1008.4 |
| 20260505054545 | 20 | 252 | 4.8 | 8.0 | 0.00 | 0.00 | 0.00 | 53 | 1008.5 |
| 20260505054043 | 20 | 216 | 4.8 | 8.0 | 0.00 | 0.00 | 0.00 | 53 | 1008.3 |
| 20260505053540 | 20 | 231 | 4.8 | 9.7 | 0.00 | 0.00 | 0.00 | 53 | 1008.0 |
| 20260505053037 | 21 | 133 | 1.6 | 4.8 | 0.00 | 0.00 | 0.00 | 53 | 1008.0 |
| 20260505052534 | 21 | 260 | 3.2 | 9.7 | 0.00 | 0.00 | 0.00 | 52 | 1008.2 |
| 20260505052032 | 21 | 236 | 1.6 | 8.0 | 0.00 | 0.00 | 0.00 | 52 | 1008.2 |
| 20260505051528 | 21 | 303 | 4.8 | 8.0 | 0.00 | 0.00 | 0.00 | 52 | 1008.0 |
| 20260505051026 | 21 | 193 | 4.8 | 8.0 | 0.00 | 0.00 | 0.00 | 52 | 1008.2 |
| 20260505050524 | 20 | 211 | 4.8 | 4.8 | 0.00 | 0.00 | 0.00 | 53 | 1008.3 |
| 20260505041452 | 21 | 217 | 4.8 | 12.9 | 0.00 | 0.00 | 0.00 | 54 | 1008.8 |
| 20260505040949 | 21 | 249 | 4.8 | 8.0 | 0.00 | 0.00 | 0.00 | 54 | 1008.9 |
| 20260505040446 | 21 | 226 | 1.6 | 3.2 | 0.00 | 0.00 | 0.00 | 54 | 1008.8 |
| 20260505035943 | 21 | 254 | 4.8 | 9.7 | 0.00 | 0.00 | 0.00 | 54 | 1008.9 |
| 20260505035439 | 21 | 131 | 3.2 | 9.7 | 0.00 | 0.00 | 0.00 | 54 | 1008.9 |
| 20260505034936 | 21 | 238 | 4.8 | 16.1 | 0.00 | 0.00 | 0.00 | 54 | 1008.9 |
| 20260505034433 | 21 | 296 | 1.6 | 8.0 | 0.00 | 0.00 | 0.00 | 55 | 1008.8 |
| 20260505033930 | 21 | 241 | 4.8 | 9.7 | 0.00 | 0.00 | 0.00 | 55 | 1009.0 |
| 20260505033426 | 21 | 174 | 4.8 | 8.0 | 0.00 | 0.00 | 0.00 | 55 | 1008.8 |
| 20260505032925 | 21 | 208 | 1.6 | 4.8 | 0.00 | 0.00 | 0.00 | 55 | 1009.1 |
| 20260505032422 | 21 | 153 | 1.6 | 3.2 | 0.00 | 0.00 | 0.00 | 55 | 1009.1 |
| 20260505031918 | 21 | 244 | 3.2 | 4.8 | 0.00 | 0.00 | 0.00 | 56 | 1009.0 |
| 20260505031415 | 21 | 172 | 1.6 | 4.8 | 0.00 | 0.00 | 0.00 | 56 | 1009.0 |
| 20260505030912 | 20 | 148 | 0.0 | 8.0 | 0.00 | 0.00 | 0.00 | 56 | 1009.1 |
| 20260505030408 | 21 | 186 | 0.0 | 3.2 | 0.00 | 0.00 | 0.00 | 56 | 1008.9 |
| 20260505025903 | 20 | 132 | 1.6 | 3.2 | 0.00 | 0.00 | 0.00 | 56 | 1008.9 |
| 20260505025401 | 21 | 141 | 1.6 | 4.8 | 0.00 | 0.00 | 0.00 | 56 | 1008.7 |
| 20260505024900 | 21 | 195 | 1.6 | 4.8 | 0.00 | 0.00 | 0.00 | 56 | 1008.6 |
| 20260505024357 | 20 | 161 | 4.8 | 9.7 | 0.00 | 0.00 | 0.00 | 56 | 1008.5 |
| 20260505023854 | 20 | 141 | 0.0 | 3.2 | 0.00 | 0.00 | 0.00 | 57 | 1008.4 |
| 20260505023351 | 20 | 147 | 0.0 | 3.2 | 0.00 | 0.00 | 0.00 | 58 | 1008.5 |
| 20260505022848 | 20 | 217 | 1.6 | 3.2 | 0.00 | 0.00 | 0.00 | 58 | 1008.3 |
| 20260505022345 | 20 | 181 | 1.6 | 3.2 | 0.00 | 0.00 | 0.00 | 58 | 1008.3 |
| 20260505021842 | 20 | 160 | 0.0 | 3.2 | 0.00 | 0.00 | 0.00 | 58 | 1008.2 |
| 20260505021339 | 20 | 151 | 0.0 | 3.2 | 0.00 | 0.00 | 0.00 | 58 | 1008.0 |
| 20260505020834 | 20 | 127 | 0.0 | 4.8 | 0.00 | 0.00 | 0.00 | 58 | 1008.2 |
| 20260505020330 | 20 | 180 | 3.2 | 4.8 | 0.00 | 0.00 | 0.00 | 58 | 1007.9 |
| 20260505015827 | 20 | 149 | 3.2 | 4.8 | 0.00 | 0.00 | 0.00 | 58 | 1007.9 |
| 20260505015324 | 20 | 168 | 1.6 | 4.8 | 0.00 | 0.00 | 0.00 | 58 | 1007.8 |
| 20260505014822 | 21 | 135 | 0.0 | 1.6 | 0.00 | 0.00 | 0.00 | 57 | 1007.7 |
| 20260505014319 | 21 | 178 | 1.6 | 3.2 | 0.00 | 0.00 | 0.00 | 57 | 1007.7 |
| 20260505013815 | 21 | 158 | 1.6 | 4.8 | 0.00 | 0.00 | 0.00 | 56 | 1007.7 |
| 20260505013312 | 21 | 145 | 1.6 | 3.2 | 0.00 | 0.00 | 0.00 | 56 | 1007.7 |
| 20260505012811 | 21 | 155 | 0.0 | 4.8 | 0.00 | 0.00 | 0.00 | 56 | 1007.7 |
| 20260505012308 | 21 | 196 | 1.6 | 3.2 | 0.00 | 0.00 | 0.00 | 56 | 1007.7 |
| 20260505011804 | 21 | 173 | 3.2 | 4.8 | 0.00 | 0.00 | 0.00 | 55 | 1007.5 |
| 20260505011301 | 21 | 168 | 0.0 | 9.7 | 0.00 | 0.00 | 0.00 | 55 | 1007.4 |
| 20260505010757 | 21 | 196 | 3.2 | 3.2 | 0.00 | 0.00 | 0.00 | 54 | 1007.7 |
| 20260505010253 | 21 | 145 | 1.6 | 4.8 | 0.00 | 0.00 | 0.00 | 54 | 1007.5 |
| 20260505005749 | 21 | 155 | 1.6 | 1.6 | 0.00 | 0.00 | 0.00 | 54 | 1007.5 |
| 20260505005246 | 21 | 137 | 1.6 | 1.6 | 0.00 | 0.00 | 0.00 | 53 | 1007.7 |
| 20260505004744 | 22 | 146 | 0.0 | 3.2 | 0.00 | 0.00 | 0.00 | 53 | 1007.7 |
| 20260505004240 | 22 | 160 | 1.6 | 4.8 | 0.00 | 0.00 | 0.00 | 52 | 1007.7 |
| 20260505003737 | 22 | 157 | 3.2 | 3.2 | 0.00 | 0.00 | 0.00 | 51 | 1007.5 |
| 20260505003235 | 22 | 188 | 0.0 | 3.2 | 0.00 | 0.00 | 0.00 | 51 | 1007.5 |
| 20260505002731 | 22 | 126 | 1.6 | 1.6 | 0.00 | 0.00 | 0.00 | 51 | 1007.7 |
| 20260505002228 | 22 | 166 | 1.6 | 3.2 | 0.00 | 0.00 | 0.00 | 51 | 1007.5 |
| 20260505001726 | 22 | 212 | 1.6 | 3.2 | 0.00 | 0.00 | 0.00 | 50 | 1007.5 |
| 20260505001223 | 22 | 237 | 1.6 | 3.2 | 0.00 | 0.00 | 0.00 | 49 | 1007.8 |
| 20260505000720 | 22 | 232 | 1.6 | 3.2 | 0.00 | 0.00 | 0.00 | 49 | 1007.7 |
| 20260505000219 | 23 | 202 | 3.2 | 3.2 | 0.00 | 0.00 | 0.00 | 48 | 1007.6 |
| 20260504235714 | 23 | 200 | 1.6 | 4.8 | 0.00 | 0.00 | 0.00 | 48 | 1007.9 |
| 20260504235210 | 23 | 173 | 3.2 | 4.8 | 0.00 | 0.00 | 0.00 | 47 | 1007.9 |
| 20260504234708 | 23 | 199 | 3.2 | 4.8 | 0.00 | 0.00 | 0.00 | 47 | 1008.0 |
| 20260504234205 | 23 | 141 | 1.6 | 4.8 | 0.00 | 0.00 | 0.00 | 46 | 1008.2 |
| 20260504233701 | 23 | 227 | 1.6 | 4.8 | 0.00 | 0.00 | 0.00 | 46 | 1008.0 |
| 20260504233157 | 23 | 266 | 1.6 | 3.2 | 0.00 | 0.00 | 0.00 | 45 | 1008.3 |
| 20260504232654 | 23 | 192 | 3.2 | 11.3 | 0.00 | 0.00 | 0.00 | 45 | 1008.4 |
| 20260504232151 | 23 | 288 | 4.8 | 8.0 | 0.00 | 0.00 | 0.00 | 44 | 1008.3 |
| 20260504231648 | 23 | 246 | 4.8 | 4.8 | 0.00 | 0.00 | 0.00 | 44 | 1008.4 |
| 20260504231144 | 24 | 230 | 3.2 | 8.0 | 0.00 | 0.00 | 0.00 | 44 | 1008.4 |
| 20260504230641 | 24 | 239 | 3.2 | 9.7 | 0.00 | 0.00 | 0.00 | 44 | 1008.2 |
| 20260504230140 | 24 | 254 | 6.4 | 12.9 | 0.00 | 0.00 | 0.00 | 43 | 1008.4 |
| 20260504225638 | 24 | 153 | 4.8 | 8.0 | 0.00 | 0.00 | 0.00 | 43 | 1008.3 |
| 20260504225133 | 24 | 250 | 3.2 | 9.7 | 0.00 | 0.00 | 0.00 | 44 | 1008.6 |
| 20260504224630 | 23 | 252 | 6.4 | 16.1 | 0.00 | 0.00 | 0.00 | 46 | 1008.3 |
| 20260504224127 | 23 | 287 | 4.8 | 8.0 | 0.00 | 0.00 | 0.00 | 49 | 1008.3 |
| 20260504223624 | 23 | 143 | 0.0 | 1.6 | 0.00 | 0.00 | 0.00 | 52 | 1008.5 |
| 20260504223120 | 23 | 191 | 1.6 | 8.0 | 0.00 | 0.00 | 0.00 | 50 | 1008.5 |
| 20260504222617 | 23 | 158 | 1.6 | 4.8 | 0.00 | 0.00 | 0.00 | 50 | 1008.4 |
| 20260504222114 | 23 | 254 | 0.0 | 4.8 | 0.00 | 0.00 | 0.00 | 51 | 1008.6 |
| 20260504221611 | 23 | 164 | 0.0 | 4.8 | 0.00 | 0.00 | 0.00 | 51 | 1008.8 |
| 20260504221108 | 23 | 6 | 0.0 | 3.2 | 0.00 | 0.00 | 0.00 | 51 | 1008.5 |
| 20260504220604 | 23 | 118 | 0.0 | 3.2 | 0.00 | 0.00 | 0.00 | 49 | 1008.8 |
| 20260504215558 | 23 | 254 | 3.2 | 3.2 | 0.00 | 0.00 | 0.00 | 49 | 1008.6 |
| 20260504215056 | 23 | 127 | 1.6 | 3.2 | 0.00 | 0.00 | 0.00 | 49 | 1008.5 |
| 20260504214551 | 23 | 176 | 3.2 | 3.2 | 0.00 | 0.00 | 0.00 | 49 | 1008.5 |
| 20260504214048 | 23 | 317 | 1.6 | 3.2 | 0.00 | 0.00 | 0.00 | 47 | 1009.1 |
| 20260504213544 | 23 | 236 | 1.6 | 4.8 | 0.00 | 0.00 | 0.00 | 48 | 1009.2 |
| 20260504213042 | 23 | 290 | 0.0 | 1.6 | 0.00 | 0.00 | 0.00 | 47 | 1009.3 |
| 20260504212537 | 23 | 281 | 3.2 | 3.2 | 0.00 | 0.00 | 0.00 | 47 | 1009.3 |
| 20260504212035 | 23 | 271 | 1.6 | 4.8 | 0.00 | 0.00 | 0.00 | 46 | 1009.4 |
| 20260504211532 | 23 | 253 | 3.2 | 4.8 | 0.00 | 0.00 | 0.00 | 47 | 1009.4 |
| 20260504211029 | 23 | 231 | 1.6 | 4.8 | 0.00 | 0.00 | 0.00 | 48 | 1009.3 |
| 20260504210526 | 23 | 258 | 1.6 | 3.2 | 0.00 | 0.00 | 0.00 | 50 | 1009.3 |
| 20260504210022 | 23 | 127 | 1.6 | 4.8 | 0.00 | 0.00 | 0.00 | 49 | 1009.6 |
| 20260504205520 | 23 | 270 | 3.2 | 8.0 | 0.00 | 0.00 | 0.00 | 49 | 1009.8 |
| 20260504205018 | 23 | 225 | 3.2 | 8.0 | 0.00 | 0.00 | 0.00 | 50 | 1009.8 |
| 20260504204516 | 23 | 238 | 4.8 | 4.8 | 0.00 | 0.00 | 0.00 | 49 | 1009.8 |
| 20260504204015 | 23 | 187 | 3.2 | 8.0 | 0.00 | 0.00 | 0.00 | 51 | 1009.8 |
| 20260504203512 | 23 | 244 | 4.8 | 8.0 | 0.00 | 0.00 | 0.00 | 50 | 1009.7 |
| 20260504203010 | 23 | 284 | 6.4 | 9.7 | 0.00 | 0.00 | 0.00 | 50 | 1009.9 |
| 20260504202505 | 23 | 325 | 3.2 | 11.3 | 0.00 | 0.00 | 0.00 | 50 | 1010.1 |
| 20260504202002 | 22 | 243 | 8.0 | 11.3 | 0.00 | 0.00 | 0.00 | 51 | 1010.2 |
| 20260504201459 | 22 | 328 | 3.2 | 8.0 | 0.00 | 0.00 | 0.00 | 51 | 1010.1 |
| 20260504200956 | 22 | 322 | 3.2 | 8.0 | 0.00 | 0.00 | 0.00 | 51 | 1010.3 |
| 20260504200453 | 23 | 222 | 4.8 | 8.0 | 0.00 | 0.00 | 0.00 | 51 | 1010.2 |
| 20260504195950 | 23 | 184 | 3.2 | 8.0 | 0.00 | 0.00 | 0.00 | 51 | 1010.2 |
| 20260504195445 | 23 | 264 | 6.4 | 12.9 | 0.00 | 0.00 | 0.00 | 53 | 1010.3 |
| 20260504194942 | 22 | 200 | 1.6 | 3.2 | 0.00 | 0.00 | 0.00 | 52 | 1010.2 |
| 20260504194438 | 22 | 228 | 8.0 | 9.7 | 0.00 | 0.00 | 0.00 | 52 | 1010.4 |
| 20260504193934 | 22 | 257 | 6.4 | 9.7 | 0.00 | 0.00 | 0.00 | 53 | 1010.6 |
| 20260504193432 | 21 | 233 | 1.6 | 4.8 | 0.00 | 0.00 | 0.00 | 56 | 1010.4 |
| 20260504192931 | 21 | 306 | 4.8 | 8.0 | 0.00 | 0.00 | 0.00 | 57 | 1010.6 |
| 20260504192427 | 21 | 265 | 3.2 | 4.8 | 0.00 | 0.00 | 0.00 | 58 | 1010.8 |
| 20260504191926 | 20 | 333 | 0.0 | 3.2 | 0.00 | 0.00 | 0.00 | 61 | 1010.8 |
| 20260504191424 | 20 | 253 | 3.2 | 8.0 | 0.00 | 0.00 | 0.00 | 61 | 1010.9 |
| 20260504190919 | 20 | 11 | 0.0 | 3.2 | 0.00 | 0.00 | 0.00 | 64 | 1011.1 |
| 20260504190415 | 20 | 266 | 0.0 | 3.2 | 0.00 | 0.00 | 0.00 | 65 | 1011.5 |
| 20260504185912 | 20 | 324 | 1.6 | 1.6 | 0.00 | 0.00 | 0.00 | 65 | 1011.2 |
| 20260504185409 | 20 | 28 | 0.0 | 1.6 | 0.00 | 0.00 | 0.00 | 64 | 1011.0 |
| 20260504184905 | 20 | 335 | 0.0 | 1.6 | 0.00 | 0.00 | 0.00 | 64 | 1011.2 |
| 20260504184401 | 20 | 269 | 0.0 | 1.6 | 0.00 | 0.00 | 0.00 | 61 | 1011.6 |
| 20260504183857 | 20 | 252 | 3.2 | 4.8 | 0.00 | 0.00 | 0.00 | 60 | 1011.5 |
| 20260504183354 | 20 | 302 | 3.2 | 8.0 | 0.00 | 0.00 | 0.00 | 60 | 1011.3 |
| 20260504182852 | 20 | 279 | 4.8 | 8.0 | 0.00 | 0.00 | 0.00 | 59 | 1011.3 |
| 20260504182349 | 20 | 250 | 3.2 | 8.0 | 0.00 | 0.00 | 0.00 | 58 | 1011.2 |
| 20260504181845 | 20 | 257 | 4.8 | 9.7 | 0.00 | 0.00 | 0.00 | 58 | 1010.9 |
| 20260504181343 | 20 | 301 | 3.2 | 11.3 | 0.00 | 0.00 | 0.00 | 57 | 1011.3 |
| 20260504180842 | 21 | 218 | 4.8 | 9.7 | 0.00 | 0.00 | 0.00 | 56 | 1010.7 |
| 20260504180340 | 21 | 203 | 3.2 | 4.8 | 0.00 | 0.00 | 0.00 | 56 | 1010.8 |
| 20260504175838 | 21 | 275 | 3.2 | 9.7 | 0.00 | 0.00 | 0.00 | 56 | 1010.7 |
| 20260504175334 | 22 | 270 | 6.4 | 9.7 | 0.00 | 0.00 | 0.00 | 55 | 1010.7 |
| 20260504174833 | 21 | 70 | 1.6 | 4.8 | 0.00 | 0.00 | 0.00 | 58 | 1010.3 |
| 20260504174330 | 21 | 238 | 8.0 | 11.3 | 0.00 | 0.00 | 0.00 | 55 | 1010.4 |
| 20260504173826 | 21 | 136 | 3.2 | 4.8 | 0.00 | 0.00 | 0.00 | 56 | 1010.5 |
| 20260504173323 | 21 | 302 | 0.0 | 3.2 | 0.00 | 0.00 | 0.00 | 58 | 1010.5 |
| 20260504172820 | 21 | 264 | 4.8 | 11.3 | 0.00 | 0.00 | 0.00 | 57 | 1010.4 |
| 20260504172317 | 21 | 262 | 1.6 | 4.8 | 0.00 | 0.00 | 0.00 | 59 | 1010.6 |
| 20260504171813 | 21 | 295 | 1.6 | 4.8 | 0.00 | 0.00 | 0.00 | 59 | 1010.5 |
| 20260504171310 | 21 | 250 | 3.2 | 4.8 | 0.00 | 0.00 | 0.00 | 59 | 1010.9 |
| 20260504170807 | 20 | 236 | 4.8 | 8.0 | 0.00 | 0.00 | 0.00 | 58 | 1010.6 |
| 20260504170304 | 20 | 137 | 3.2 | 3.2 | 0.00 | 0.00 | 0.00 | 61 | 1010.5 |
| 20260504160222 | 18 | 124 | 1.6 | 3.2 | 0.00 | 0.00 | 0.00 | 63 | 1011.4 |
| 20260504150653 | 17 | 285 | 1.6 | 4.8 | 0.00 | 0.00 | 0.00 | 62 | 1011.5 |
| 20260504150149 | 17 | 241 | 1.6 | 8.0 | 0.00 | 0.00 | 0.00 | 63 | 1011.6 |
| 20260504141118 | 16 | 227 | 3.2 | 4.8 | 0.00 | 0.00 | 0.00 | 64 | 1011.6 |
| 20260504140615 | 16 | 223 | 1.6 | 4.8 | 0.00 | 0.00 | 0.00 | 64 | 1011.6 |
| 20260504140111 | 16 | 291 | 1.6 | 4.8 | 0.00 | 0.00 | 0.00 | 64 | 1011.6 |
| 20260504130539 | 14 | 244 | 4.8 | 4.8 | 0.00 | 0.00 | 0.00 | 67 | 1011.8 |
| 20260504110426 | 12 | 179 | 1.6 | 1.6 | 0.00 | 0.00 | 0.00 | 65 | 1011.7 |
| 20260504100349 | 11 | 121 | 0.0 | 3.2 | 0.00 | 0.00 | 0.00 | 68 | 1012.0 |
| 20260504081742 | 12 | 118 | 1.6 | 1.6 | 0.00 | 0.00 | 0.00 | 61 | 1012.7 |
| 20260504081238 | 12 | 188 | 1.6 | 3.2 | 0.00 | 0.00 | 0.00 | 60 | 1012.7 |
| 20260504080735 | 12 | 112 | 0.0 | 1.6 | 0.00 | 0.00 | 0.00 | 61 | 1012.9 |
| 20260504080232 | 12 | 138 | 0.0 | 1.6 | 0.00 | 0.00 | 0.00 | 60 | 1013.0 |